Starlink 30228

operational
NORAD ID: 57502 Int'l Des: 2023-113 Owner: SPXS Country: US Constellation: starlink
LEOCIRCULAR

About Starlink 30228

Description loading...

Live Position

Loading 3D Globe...

Upcoming Passes

Altitude History

Altitude vs Time

uPlot chart will show altitude changes over time

Two-Line Element Set

1 57502U 23113H 25261.20368822 .00086443 00000-0 29518-2 0 9998
2 57502 42.9902 203.9878 0010347 172.3600 187.7412 15.29283744117967
Epoch: Sep 18, 2025 • Age: 8 hours

Current Status

Altitude 471.8 km
Velocity 7.64 km/s
Sub-Earth Point 25.44°N, 153.67°E
Launch Date Aug 7, 2023
Age 2.1 years
Type internet

Technical Details

Classification Payload
Mass 730.00 kg
Dry Mass 700.00 kg
Total Mass 730.00 kg
Length 0.30 m
Diameter 4.10 m
Span 29.00 m
Shape Box + pan
Manufacturer SPXS
Bus Type Starlink V2M
Phase Status In Orbit
Owner/State SPXS/US

Large Constellations

Loading constellations...